This is the latest recevied weather packets stored in our database for station/object N8JE-13. If no packets are shown the sender has not sent any weather packets the latest 10 day(s).
| Time | Temp. | Humidity | Pressure | Rain* | Wind** | Luminosity | Snow |
|---|---|---|---|---|---|---|---|
| 1777510292 | 12.22° C | 72% | 1011.1 hPa | 0 mm | - | - | - |
| 1777509992 | 12.78° C | 72% | 1011 hPa | 0 mm | - | - | - |
| 1777509692 | 12.78° C | 71% | 1011 hPa | 0 mm | - | - | - |
| 1777509391 | 12.78° C | 70% | 1010.9 hPa | 0 mm | - | - | - |
| 1777509092 | 12.78° C | 70% | 1010.9 hPa | 0 mm | - | - | - |
| 1777508793 | 13.33° C | 70% | 1010.9 hPa | 0 mm | - | - | - |
| 1777508492 | 13.33° C | 71% | 1010.8 hPa | 0 mm | - | - | - |
| 1777508192 | 13.33° C | 72% | 1010.7 hPa | 0 mm | - | - | - |
| 1777507894 | 13.33° C | 72% | 1010.7 hPa | 0 mm | - | - | - |
| 1777507593 | 13.33° C | 72% | 1010.7 hPa | 0 mm | - | - | - |
| 1777507293 | 13.33° C | 73% | 1010.5 hPa | 0 mm | - | - | - |
| 1777506993 | 13.89° C | 73% | 1010.6 hPa | 0 mm | - | - | - |
| 1777506693 | 13.89° C | 72% | 1010.6 hPa | 0 mm | - | - | - |
| 1777506393 | 13.89° C | 72% | 1010.5 hPa | 0 mm | - | - | - |
| 1777506092 | 14.44° C | 71% | 1010.5 hPa | 0 mm | - | - | - |
| 1777505794 | 14.44° C | 71% | 1010.4 hPa | 0 mm | - | - | - |
| 1777505494 | 14.44° C | 70% | 1010.4 hPa | 0 mm | - | - | - |
| 1777505194 | 14.44° C | 70% | 1010.1 hPa | 0 mm | - | - | - |
| 1777504893 | 15° C | 68% | 1010.1 hPa | 0 mm | - | - | - |
| 1777504594 | 15° C | 67% | 1010.1 hPa | 0 mm | - | - | - |
| 1777504294 | 15.56° C | 66% | 1010.1 hPa | 0 mm | - | - | - |
| 1777503994 | 15° C | 67% | 1010 hPa | 0 mm | - | - | - |
| 1777503694 | 15° C | 68% | 1010.1 hPa | 0 mm | - | - | - |
| 1777503394 | 15.56° C | 68% | 1010.1 hPa | 0 mm | - | - | - |
| 1777503094 | 15.56° C | 69% | 1010 hPa | 0 mm | - | - | - |
* Rain latest hour (hover to see other rain measurements)
** Current wind speed in m/s (hover to see current wind gust speed)